Santiago, Chile

10:39 PM -03 on February 20, 2018 (GMT -0300)
Arturo Merino Benitez International

Weather History for SCEL - February, 2018

Change the Weather History Date:

Monday, February 19, 2018

  Actual Average Record
Temperature  
Mean Temperature 70 °F -  
Max Temperature 83 °F 79 °F 92 °F (2017)
Min Temperature 58 °F 50 °F 46 °F (2003)
Cooling Degree Days 6    
Growing Degree Days 20 (Base 50)    
Moisture  
Dew Point 56 °F    
Average Humidity 68    
Maximum Humidity 100    
Minimum Humidity 31    
Precipitation  
Precipitation 0.00 in - - ()
Sea Level Pressure  
Sea Level Pressure 29.91 in    
Wind  
Wind Speed 8 mph ()    
Max Wind Speed 17 mph    
Max Gust Speed -    
Visibility 5.3 miles    
Events      
Averages and records for this station are not official NWS values.
T = Trace of Precipitation, MM = Missing Value Source: Averaged Metar Reports

Daily Weather History Graph

Daily Weather History Graph

Search for Another Location

Airport or City:

Trip Planner

Search our weather history database for the weather conditions in past years. The results will help you decide how hot, cold, wet, or windy it might be!

Date:

Astronomy

Feb. 19, 2018 Rise Set
Actual Time 7:22 AM -03 8:30 PM -03
Civil Twilight 6:57 AM -03 8:56 PM -03
Nautical Twilight 6:26 AM -03 9:26 PM -03
Astronomical Twilight 5:54 AM -03 9:58 PM -03
Moon 10:47 AM -03 (2/19) 10:56 PM -03 (2/19)
Length of Visible Light 13h 59m
Length of Day
13h 07m
Waxing Crescent, 14% of the Moon is Illuminated
Feb 19
Waxing Crescent
Feb 23
First Quarter
Mar 1
Full
Mar 9
Last Quarter
Mar 17
New

Hourly Weather History & Observations

Time (-03) Temp. Heat Index Dew Point Humidity Pressure Visibility Wind Dir Wind Speed Gust Speed Precip Events Conditions
12:00 AM 66.2 °F - 57.2 °F 73% 29.95 in - SSE 9.2 mph - N/A   Clear
1:00 AM 64.4 °F - 57.2 °F 77% 29.95 in - SSE 8.1 mph - N/A   Clear
2:00 AM 64.4 °F - 57.2 °F 77% 29.95 in - SSE 8.1 mph - N/A   Clear
3:00 AM 62 °F - 57 °F 80% 29.92 in 6 mi South 6.9 mph - -   Partly Cloudy
3:00 AM 62.6 °F - 57.2 °F 82% 29.92 in - South 6.9 mph - N/A   Clear
4:00 AM 60.8 °F - 57.2 °F 88% 29.92 in 5.0 mi SSE 6.9 mph - N/A   Scattered Clouds
5:00 AM 59.0 °F - 59.0 °F 100% 29.92 in 3.7 mi SSE 8.1 mph - N/A   Mostly Cloudy
6:00 AM 59.0 °F - 57.2 °F 94% 29.92 in 5.0 mi SSE 8.1 mph - N/A   Mostly Cloudy
7:00 AM 59.0 °F - 57.2 °F 94% 29.92 in 5.0 mi South 5.8 mph - N/A   Mostly Cloudy
8:00 AM 59.0 °F - 59.0 °F 100% 29.95 in 3.1 mi SE 4.6 mph - N/A   Mostly Cloudy
9:00 AM 60 °F - 58 °F 89% 29.93 in 3 mi ESE 3.5 mph - -   Mist
9:00 AM 60.8 °F - 57.2 °F 88% 29.95 in 3.1 mi ESE 3.5 mph - N/A   Overcast
10:00 AM 62.6 °F - 57.2 °F 82% 29.95 in 5.0 mi Variable 2.3 mph - N/A   Mostly Cloudy
10:32 AM 64.4 °F - 57.2 °F 77% 29.92 in 5.0 mi SSW 3.5 mph - N/A   Mostly Cloudy
11:00 AM 66.2 °F - 57.2 °F 73% 29.92 in 5.0 mi SSW 5.8 mph - N/A   Scattered Clouds
12:00 PM 69.8 °F - 59.0 °F 68% 29.92 in - South 6.9 mph - N/A   Clear
1:00 PM 73.4 °F - 57.2 °F 57% 29.89 in - South 9.2 mph - N/A   Clear
2:00 PM 77.0 °F - 57.2 °F 50% 29.89 in - South 6.9 mph - N/A   Clear
3:00 PM 81 °F - 55 °F 31% 29.80 in 6 mi South 12.7 mph - -   Partly Cloudy
3:00 PM 80.6 °F 80.5 °F 55.4 °F 42% 29.86 in - South 12.7 mph - N/A   Clear
4:00 PM 80.6 °F 80.8 °F 57.2 °F 45% 29.86 in 6.2 mi SW 13.8 mph - N/A   Partly Cloudy
5:00 PM 82.4 °F 82.0 °F 57.2 °F 42% 29.83 in 6.2 mi SSW 11.5 mph - N/A   Partly Cloudy
6:00 PM 80.6 °F 80.5 °F 55.4 °F 42% 29.86 in 6.2 mi SW 17.3 mph - N/A   Partly Cloudy
7:00 PM 77.0 °F - 53.6 °F 44% 29.86 in 6.2 mi SW 17.3 mph - N/A   Partly Cloudy
8:00 PM 73.4 °F - 53.6 °F 50% 29.89 in 6.2 mi SSW 13.8 mph - N/A   Partly Cloudy
9:00 PM 69 °F - 53 °F 46% 29.88 in 6 mi SSE 13.8 mph - -   Partly Cloudy
9:00 PM 68.0 °F - 53.6 °F 60% 29.92 in 6.2 mi SSE 13.8 mph - N/A   Partly Cloudy
10:00 PM 64.4 °F - 51.8 °F 64% 29.98 in 6.2 mi SSE 15.0 mph - N/A   Mostly Cloudy
11:00 PM 62.6 °F - 51.8 °F 68% 29.98 in 6.2 mi SSE 11.5 mph - N/A   Scattered Clouds